Location: Edmonton
(53.5500°N, 113.5000°W)
Time: 09:07:46
(UTC-06:00)

Daily predictions for brighter satellites

Satellite Brightness Start Highest point End
(mag) Time Altitude Azimuth Time Altitude Azimuth Time Altitude Azimuth
Cosmos 1758 4.0 22:35:43 10° N 22:39:41 44° ENE 22:43:38 10° SE
Cosmos 1825 Rocket 3.6 22:35:23 10° S 22:39:50 83° E 22:44:16 10° NNE
CZ-4 R/B 4.3 22:36:50 10° NNE 22:41:41 48° E 22:46:31 10° S
Cosmos 1190 Rocket 4.1 22:37:20 10° S 22:42:35 64° ESE 22:47:52 10° NNE
Landsat 7 4.0 22:38:02 10° SSE 22:42:43 62° ENE 22:47:26 10° N
Cosmos 1570 Rocket 4.3 22:37:33 10° NNW 22:42:54 66° ENE 22:48:14 10° SE
YAOGAN 6 3.2 22:42:25 10° S 22:46:07 59° W 22:49:51 10° NNW
Cosmos 1842 Rocket 4.4 22:44:04 10° N 22:48:10 38° ENE 22:52:17 10° SE
DELTA 2 DEB (DPAF) 4.2 22:43:55 10° SSE 22:48:24 79° ENE 22:52:56 10° NNW
H-2A R/B 2.3 22:45:58 10° SSE 22:50:53 59° ENE 22:55:58 10° N
SL-16 R/B 4.3 22:46:59 10° WSW 22:52:02 32° NW 22:57:08 10° NNE
IGS 5A 4.0 22:49:28 10° SE 22:53:27 48° ENE 22:57:29 10° N
NOAA 11 4.3 22:48:35 10° SSE 22:54:01 82° WSW 22:59:30 10° NNW
Cosmos 1544 4.3 22:51:37 10° N 22:55:00 30° ENE 22:58:22 10° SE
Spot 4 4.3 22:51:23 10° SE 22:56:00 50° ENE 23:00:39 10° N
Cosmos 2084 4.1 22:53:07 10° WNW 22:57:01 45° SW 23:01:05 10° SSE
UNK 4.3 22:52:12 10° NNE 22:57:38 86° WNW 23:03:19 10° SSW
SPOT 5 4.3 22:53:53 10° SSW 22:57:42 30° W 23:01:33 10° NNW
Terra 2.0 22:53:51 10° SSE 22:58:32 62° ENE 23:03:16 10° N
Lacrosse 4 Rocket 1.3 22:55:17 10° SSW 22:59:18 61° ESE 23:03:24 10° NE
ATLAS 3B R/B 3.0 22:51:47 10° SSW 22:59:19 63° SE 23:06:38 10° NE
Cosmos 1470 4.0 22:56:28 10° N 22:59:54 28° ENE 23:03:17 10° SE
Cosmos 676 Rocket 4.2 22:54:42 10° S 22:59:55 57° ESE 23:05:08 10° NNE
SPOT 1/Viking Rocket 4.1 22:55:05 10° S 23:00:09 56° WSW 23:05:14 10° NNW
Cosmos 1805 3.5 22:57:32 10° N 23:01:29 61° ENE 23:05:21 10° SSE
SAR-Lupe-2 3.7 22:58:01 10° SSE 23:01:35 67° ENE 23:05:10 10° N
Lacrosse 5 2.4 23:02:25 10° WNW 23:07:28 62° N 23:12:29 10° E
Aureole 2 4.3 23:04:24 10° NNW 23:07:29 59° ENE 23:10:04 12° SE
USA 234 3.9 23:09:11 10° SSE 23:15:22 43° SW 23:21:36 10° WNW
CZ-4C R/B 3.9 23:14:57 10° S 23:19:00 54° W 23:22:51 10° NNW
Cosmos 2221 3.8 23:17:08 10° N 23:20:58 30° ENE 23:24:32 11° SE
DMSP B5D2-2 4.5 23:16:10 10° NNE 23:21:17 47° E 23:26:18 10° S
COSMOS 2406 3.7 23:16:46 10° S 23:22:06 42° ESE 23:27:28 10° NE
SL-27 R/B 2.5 23:19:26 10° S 23:22:41 52° ESE 23:25:59 10° NNE
Cosmos-2242 3.5 23:19:31 10° NNW 23:23:53 60° W 23:28:13 10° S
Nadezhda 4 Rocket 4.2 23:19:40 10° S 23:25:51 59° E 23:32:03 10° NNE
Cosmos 1943 Rocket 3.0 23:21:24 10° NW 23:26:36 42° WSW 23:31:49 10° S
Cosmos 407 Rocket 3.7 23:22:04 10° SSW 23:27:19 76° WNW 23:32:33 10° NNE
Cosmos 1953 2.7 23:24:14 10° NNW 23:28:11 61° W 23:32:04 10° S
COSMOS 2487 3.9 23:28:09 14° SE 23:30:13 23° ESE 23:33:07 10° NE
Cosmos 1900 4.4 23:25:25 10° SW 23:30:34 83° SE 23:35:44 10° NE
Lacrosse 5 rocket 2.2 23:29:31 10° WNW 23:33:28 52° N 23:37:41 10° E
Cosmos 1656 Rocket 3.9 23:29:44 10° NW 23:35:25 68° WSW 23:40:20 14° SSE
Spot 2 4.5 23:33:09 10° NNE 23:37:55 62° ESE 23:42:49 10° S
Cosmos 1707 4.0 23:36:52 15° SE 23:39:23 27° E 23:42:44 10° NNE
Cosmos 1943 4.0 23:35:41 10° SW 23:41:15 56° NW 23:46:54 10° NNE
Cosmos 1818 3.7 23:35:49 10° NW 23:41:20 80° NE 23:46:24 12° SE
USA 238 DEB 3.9 23:37:39 10° SSW 23:44:30 55° SE 23:51:21 10° NE
USA 238 3.9 23:37:46 10° SSW 23:44:37 54° SE 23:51:26 10° NE
CZ-4B R/B 3.6 23:44:56 10° ESE 23:47:45 21° ENE 23:50:35 10° NNE
ATLAS CENTAUR R/B 4.5 23:44:06 10° WNW 23:48:05 23° N 23:51:59 10° NE
Cosmos 1954 Rocket 4.1 23:43:01 10° SSW 23:48:21 83° WNW 23:53:41 10° NNE
Cosmos 1842 4.1 23:47:03 10° SSW 23:50:53 50° WNW 23:54:43 10° N
Cosmos 1607 4.2 23:47:22 10° SSW 23:53:21 49° ESE 23:59:17 10° NE
Cosmos 1689 Rocket 4.4 23:51:46 10° ESE 23:54:06 19° ENE 23:56:28 10° NNE
